Wind_Speed
7 7 8 9 10 11 11 12 13 14 14 14 15 14 12 10 8 7 5 3 3 8 12 15 15 14 14 13 11 10 8 7 6 4 3 2 3 4 5 6 7 7 7 8
7 8 8 9 10 11 12 13 13 13 14 14 14 13 12 9 7 5 4 2 1 4 10 13 14 15 15 13 12 10 9 8 6 4 3 2 2 3 4 6 6 7 7 8
8 8 8 9 10 12 12 13 12 13 14 14 12 11 11 8 5 3 3 1 1 4 9 11 13 13 15 14 12 9 9 7 6 4 3 2 1 2 4 4 5 6 6 7
7 7 8 9 10 12 12 12 12 12 13 13 12 11 9 8 5 4 3 3 2 5 7 9 9 11 12 12 11 10 10 8 6 5 4 3 2 2 3 3 4 5 6 7
7 8 8 10 11 11 13 13 13 11 11 11 10 10 8 7 5 4 4 4 3 4 6 7 7 8 9 10 10 11 10 8 6 5 5 3 2 2 3 3 4 5 5 6
8 9 11 11 12 12 14 14 13 11 9 9 9 8 6 6 5 4 3 3 3 3 5 6 6 7 9 9 9 10 9 8 7 6 5 4 3 3 3 4 4 5 6 7
9 10 12 13 12 13 14 14 13 11 10 9 9 8 7 7 5 4 3 2 2 2 3 4 6 6 8 8 9 9 8 8 7 6 5 5 4 4 4 5 5 6 7 8
11 11 13 14 13 14 15 14 14 14 13 10 9 8 8 7 5 5 4 3 1 0 2 3 5 6 6 7 8 8 8 8 8 7 7 6 6 6 6 6 7 7 8 9
13 13 14 14 13 15 15 14 14 15 13 11 9 8 8 8 7 7 6 5 3 2 2 4 5 6 7 8 8 9 9 9 9 8 8 8 7 7 7 8 9 9 10 11
15 15 14 14 14 15 15 16 16 16 14 12 10 8 9 9 9 9 8 7 6 6 6 6 7 7 8 9 10 10 10 10 10 10 10 9 9 9 10 10 11 12 13 14
16 15 13 13 14 15 16 17 18 17 16 15 11 8 10 10 10 10 10 9 8 9 9 9 9 9 10 11 11 11 11 12 12 12 11 11 11 11 12 12 13 14 15 16
15 15 14 14 15 16 17 18 18 18 17 15 14 10 11 12 12 11 11 11 11 11 11 11 11 11 12 12 12 12 13 13 14 13 13 13 13 14 14 15 16 17 18 19
16 15 15 15 15 17 18 18 19 18 17 15 15 12 13 13 13 13 13 13 13 13 13 13 13 13 13 13 13 13 14 15 15 15 15 15 16 16 16 17 18 19 20 21
15 16 16 17 17 17 17 18 19 19 18 16 15 14 14 14 14 14 15 15 15 15 15 15 14 14 14 14 15 15 15 16 17 17 17 18 18 19 19 20 21 22 23 24
16 16 17 17 18 18 18 18 19 19 19 18 16 15 15 16 16 16 16 16 16 16 16 16 16 16 16 16 16 16 17 18 18 19 19 20 21 21 22 23 24 25 26 26
17 17 17 18 19 20 19 18 19 20 20 20 19 18 17 17 17 17 18 19 19 19 18 18 18 18 17 18 18 18 18 19 20 20 21 21 22 23 24 25 26 27 28 28
18 18 18 18 19 21 20 19 20 20 20 21 20 18 19 19 18 19 19 20 21 20 20 20 20 20 19 19 19 20 20 20 21 22 22 24 25 26 27 28 28 29 30 31
20 19 19 19 19 20 19 20 20 20 20 20 19 19 19 20 20 20 20 19 20 21 21 21 22 22 21 21 21 20 21 22 23 24 25 26 27 28 29 30 31 32 33 33
19 20 20 19 20 19 18 19 20 20 20 20 19 19 19 20 21 22 21 21 21 22 23 24 25 25 24 24 23 23 24 24 24 25 26 28 29 30 31 32 33 34 35 36
19 20 20 19 20 19 18 19 19 20 20 19 19 19 19 20 20 21 22 22 23 24 25 26 27 27 26 26 26 26 26 26 27 28 29 31 32 32 33 35 36 37 38 39
19 19 20 20 20 19 19 18 19 20 20 19 19 19 18 18 19 20 21 21 21 23 25 26 27 27 27 27 26 26 27 28 30 32 33 33 34 35 36 38 39 41 42 43
20 20 21 20 20 19 19 18 19 19 19 19 18 18 19 19 19 19 20 20 21 23 24 25 26 27 27 27 27 28 29 30 32 33 34 36 37 38 40 41 42 44 45 46
21 22 22 21 20 19 19 19 20 20 19 19 19 19 20 20 20 19 20 20 21 22 23 25 26 27 27 28 29 31 32 34 35 36 37 39 40 41 42 44 45 46 48 48
22 22 23 22 21 21 20 20 21 20 20 20 20 21 21 21 21 20 19 19 20 21 23 24 26 26 27 28 30 32 34 36 37 38 39 41 42 43 45 46 48 49 49 51
24 24 24 24 23 23 22 22 23 23 23 24 23 22 22 23 22 20 20 20 21 23 24 25 26 26 28 30 32 33 35 37 38 40 41 43 44 46 47 49 51 52 54 55
25 26 26 25 24 24 24 24 24 24 24 24 23 23 24 25 23 23 23 23 24 25 26 26 28 29 31 32 34 36 37 39 41 42 44 45 47 48 50 52 53 55 56 57
Wind_Direction
304 304 314 327 333 337 343 346 349 349 346 347 348 347 345 347 343 336 324 288 252 227 209 204 203 199 194 187 191 186 188 198 201 202 218 254 288 312 324 329 330 332 335 335
288 293 306 319 326 329 330 335 343 346 343 343 347 348 345 347 345 339 346 326 231 211 197 195 194 192 191 190 187 182 189 191 186 185 204 241 284 312 322 327 332 341 343 342
277 292 301 311 319 326 331 331 335 341 340 342 345 344 345 348 350 352 8 27 169 176 176 179 185 189 189 188 188 189 189 183 180 180 190 215 262 310 324 331 339 346 348 350
271 287 301 315 324 327 329 328 329 334 336 339 343 344 344 346 356 7 19 44 115 154 163 174 178 184 188 188 191 193 183 182 184 188 198 213 247 302 320 330 341 351 357 360
266 282 300 312 321 323 325 325 324 326 332 334 339 343 344 348 354 10 27 46 99 153 164 174 184 188 190 186 186 185 184 185 192 199 207 215 244 284 305 325 342 354 360 1
267 285 295 304 311 315 321 322 321 320 322 326 332 338 338 337 343 356 25 50 89 146 165 174 182 184 189 187 188 189 191 193 203 211 216 228 249 272 296 317 332 344 348 348
270 286 292 296 300 308 313 316 318 316 316 318 318 320 319 319 329 332 340 8 48 134 174 182 183 183 185 192 195 196 195 202 211 220 230 241 255 269 288 302 312 322 329 330
274 283 288 292 295 302 308 310 314 315 315 311 310 312 304 303 305 312 312 309 319 177 182 197 200 196 196 201 202 201 206 214 221 229 239 248 258 268 279 290 299 307 313 317
278 283 283 286 290 297 303 307 310 309 309 308 301 303 301 289 286 290 295 285 273 261 233 222 219 212 209 208 210 214 219 224 229 237 245 252 259 268 275 283 292 299 304 308
277 279 277 283 289 294 298 305 307 305 302 302 299 288 288 282 285 283 282 275 264 264 253 240 231 226 224 224 223 224 228 231 236 243 249 255 261 269 277 284 290 295 300 303
277 277 280 286 290 294 298 302 303 300 297 296 291 284 277 276 277 280 276 272 265 263 262 254 247 241 238 237 234 233 235 237 241 246 252 258 266 273 279 285 289 293 296 299
279 277 280 287 290 293 296 299 300 296 294 291 284 279 272 270 267 271 273 270 267 265 262 258 252 246 243 242 240 240 240 242 245 250 255 262 269 274 279 284 288 291 294 298
277 278 282 287 291 294 294 295 295 295 293 289 283 282 270 265 261 263 269 270 268 265 263 260 256 252 248 247 246 246 246 248 251 255 260 265 270 274 279 284 287 290 293 297
276 279 284 288 289 294 295 292 292 294 291 288 285 281 273 266 261 261 263 266 265 264 263 263 259 254 253 251 251 252 252 253 256 259 264 268 272 276 280 283 286 289 292 295
276 278 281 286 286 291 294 292 290 289 288 284 283 278 271 266 263 259 258 260 262 263 264 263 258 255 255 255 255 256 257 258 261 264 268 272 275 278 281 284 287 289 292 295
275 276 278 282 284 289 293 294 289 286 284 284 282 276 270 266 265 264 261 262 263 262 262 262 258 255 256 258 258 259 261 263 265 268 270 274 277 279 282 284 287 289 292 294
272 275 278 282 284 286 290 293 290 288 286 285 282 278 270 264 264 264 265 266 263 264 263 260 258 257 257 258 260 261 263 266 268 271 273 276 279 281 283 285 288 289 291 292
268 273 278 282 284 286 294 291 289 289 289 286 282 277 272 267 266 267 266 268 264 262 261 260 259 257 258 262 264 265 267 269 271 274 276 278 280 282 284 286 287 288 290 292
268 273 276 281 285 291 292 288 287 286 286 285 280 277 275 272 271 270 268 268 264 261 260 259 259 259 258 261 263 265 267 270 272 275 277 279 281 283 285 286 287 288 289 291
268 268 273 279 284 289 292 289 289 288 285 285 280 277 274 272 274 274 270 266 262 259 259 257 258 258 259 261 262 266 270 274 275 276 277 280 282 283 285 287 287 288 289 291
265 269 273 276 280 285 288 289 289 287 288 283 279 276 275 275 276 272 266 264 265 260 259 259 258 259 261 265 267 270 273 276 277 278 279 280 283 284 286 287 288 288 289 291
266 268 270 273 278 282 284 286 288 289 287 284 281 277 277 277 276 272 270 269 270 266 262 261 260 262 264 265 269 272 274 275 277 279 280 281 283 285 286 287 288 288 289 290
267 268 270 274 278 280 282 283 285 287 285 284 281 279 280 280 277 274 273 271 272 269 267 267 266 265 265 268 271 274 275 278 280 281 282 283 284 285 286 287 287 288 289 288
266 269 272 276 277 278 280 282 281 283 284 282 279 279 282 280 279 276 275 274 273 273 274 273 271 271 274 275 276 277 278 279 281 282 283 284 284 285 286 287 287 288 288 288
269 271 273 275 277 278 278 280 280 281 283 282 276 277 278 277 276 275 277 279 279 279 279 278 278 279 280 280 281 281 281 282 283 284 285 285 285 286 287 287 287 288 288 289
268 270 271 273 275 277 277 278 279 278 280 278 277 275 275 274 275 277 279 281 283 284 284 284 283 283 284 284 284 284 284 285 285 286 286 287 287 287 287 287 288 288 288 288
Height
5880 5880 5879 5877 5876 5874 5871 5869 5866 5863 5860 5857 5853 5850 5847 5845 5843 5841 5840 5839 5838 5839 5840 5842 5845 5848 5851 5854 5857 5860 5862 5864 5865 5866 5866 5866 5867 5867 5867 5866 5866 5865 5865 5864
5879 5878 5878 5876 5875 5873 5871 5868 5866 5863 5860 5857 5854 5851 5847 5845 5843 5841 5839 5838 5838 5837 5838 5840 5843 5846 5849 5852 5856 5858 5861 5862 5863 5864 5865 5865 5865 5866 5866 5865 5865 5864 5864 5863
5877 5877 5876 5875 5873 5872 5869 5867 5865 5862 5860 5857 5854 5852 5849 5846 5844 5842 5840 5839 5838 5837 5838 5840 5843 5845 5848 5851 5854 5857 5860 5861 5862 5863 5864 5864 5864 5865 5865 5865 5864 5863 5863 5862
5875 5875 5874 5873 5871 5869 5868 5866 5864 5862 5859 5857 5855 5852 5850 5847 5846 5844 5842 5840 5839 5839 5840 5841 5843 5845 5847 5850 5853 5856 5858 5860 5861 5862 5863 5863 5864 5864 5864 5864 5863 5863 5862 5861
5873 5873 5872 5871 5870 5868 5866 5864 5863 5861 5859 5857 5855 5853 5851 5848 5847 5846 5844 5842 5841 5842 5842 5843 5844 5846 5847 5849 5852 5854 5856 5858 5860 5861 5861 5862 5862 5863 5863 5862 5862 5861 5861 5860
5872 5871 5870 5869 5868 5866 5864 5863 5861 5860 5859 5857 5855 5853 5852 5850 5849 5847 5846 5845 5843 5843 5844 5844 5845 5846 5847 5849 5852 5853 5854 5856 5858 5859 5860 5861 5861 5861 5861 5861 5860 5860 5859 5858
5870 5869 5867 5866 5865 5864 5863 5861 5860 5858 5857 5856 5855 5853 5852 5850 5849 5848 5847 5846 5845 5845 5845 5845 5846 5846 5848 5849 5851 5852 5854 5855 5857 5858 5858 5859 5859 5859 5859 5859 5859 5858 5857 5856
5867 5867 5865 5863 5862 5861 5860 5859 5858 5857 5855 5855 5854 5853 5852 5850 5849 5848 5848 5847 5846 5845 5845 5846 5846 5847 5848 5849 5850 5851 5852 5854 5855 5856 5857 5857 5857 5857 5857 5857 5857 5856 5855 5854
5863 5863 5862 5860 5859 5859 5858 5856 5856 5855 5853 5853 5852 5852 5851 5850 5849 5848 5848 5847 5846 5846 5846 5846 5846 5847 5847 5848 5849 5850 5851 5852 5853 5854 5854 5855 5855 5855 5855 5855 5854 5853 5852 5851
5859 5859 5859 5857 5856 5856 5855 5854 5853 5852 5850 5850 5850 5850 5850 5849 5848 5848 5847 5846 5846 5845 5845 5845 5846 5846 5846 5847 5847 5848 5849 5850 5851 5851 5852 5852 5852 5852 5852 5851 5851 5850 5849 5847
5855 5855 5855 5854 5853 5852 5852 5851 5849 5848 5848 5847 5847 5850 5848 5847 5846 5846 5846 5845 5845 5844 5844 5844 5844 5844 5844 5845 5845 5845 5846 5847 5848 5848 5849 5849 5849 5848 5848 5847 5847 5846 5845 5843
5850 5851 5850 5850 5850 5849 5848 5847 5846 5846 5845 5844 5844 5848 5845 5845 5844 5844 5844 5843 5843 5843 5842 5842 5842 5842 5842 5842 5842 5843 5843 5844 5844 5845 5845 5845 5845 5844 5844 5843 5842 5841 5840 5839
5846 5847 5846 5846 5847 5846 5844 5842 5842 5841 5841 5841 5841 5845 5842 5842 5841 5842 5841 5841 5840 5840 5840 5839 5839 5839 5839 5839 5839 5840 5840 5840 5840 5841 5841 5840 5840 5839 5839 5838 5837 5836 5835 5833
5842 5842 5843 5842 5841 5840 5839 5838 5837 5837 5837 5837 5838 5838 5838 5837 5838 5838 5838 5838 5837 5837 5837 5837 5836 5836 5836 5836 5836 5836 5836 5836 5836 5836 5836 5835 5835 5834 5833 5832 5831 5830 5828 5827
5837 5837 5837 5836 5836 5835 5835 5834 5833 5832 5832 5833 5833 5834 5834 5833 5834 5834 5834 5834 5834 5833 5833 5833 5833 5832 5832 5832 5832 5832 5832 5832 5831 5831 5830 5830 5829 5828 5827 5826 5824 5823 5821 5819
5831 5832 5832 5831 5830 5830 5830 5829 5828 5828 5827 5827 5828 5829 5829 5829 5829 5830 5830 5830 5830 5829 5829 5829 5828 5828 5828 5827 5827 5827 5827 5826 5826 5825 5824 5824 5823 5821 5820 5819 5817 5815 5814 5812
5826 5826 5826 5826 5825 5825 5825 5825 5823 5823 5822 5822 5822 5824 5823 5824 5824 5824 5824 5824 5824 5824 5824 5823 5823 5823 5823 5822 5822 5821 5821 5820 5820 5819 5818 5817 5816 5814 5813 5811 5809 5807 5806 5804
5821 5821 5821 5821 5821 5820 5822 5819 5818 5818 5817 5817 5817 5817 5817 5817 5817 5818 5818 5818 5818 5818 5817 5817 5816 5816 5816 5816 5815 5815 5814 5813 5812 5812 5811 5809 5808 5806 5804 5803 5801 5799 5797 5795
5815 5815 5815 5815 5815 5815 5815 5814 5812 5812 5812 5811 5811 5811 5810 5810 5810 5810 5810 5811 5810 5810 5810 5810 5810 5809 5809 5809 5808 5808 5807 5806 5805 5804 5803 5801 5799 5798 5796 5794 5792 5790 5788 5787
5809 5809 5810 5809 5809 5810 5811 5809 5807 5807 5806 5805 5805 5804 5804 5804 5804 5804 5803 5802 5802 5802 5802 5802 5802 5801 5801 5801 5801 5800 5799 5798 5797 5796 5794 5793 5791 5789 5787 5785 5783 5781 5779 5777
5802 5803 5804 5803 5803 5804 5804 5803 5802 5802 5801 5799 5798 5798 5798 5797 5797 5797 5796 5795 5795 5794 5794 5794 5794 5794 5793 5793 5793 5792 5791 5790 5789 5787 5786 5784 5782 5780 5778 5776 5774 5771 5769 5766
5796 5797 5797 5798 5798 5800 5798 5797 5797 5796 5794 5793 5792 5792 5791 5791 5790 5790 5789 5788 5787 5787 5787 5786 5786 5786 5786 5785 5785 5784 5783 5782 5780 5778 5776 5774 5772 5770 5768 5766 5763 5760 5757 5754
5790 5791 5791 5793 5794 5793 5792 5791 5790 5789 5788 5787 5787 5786 5786 5785 5784 5783 5782 5782 5781 5780 5780 5779 5779 5778 5777 5777 5776 5775 5774 5773 5771 5769 5767 5764 5762 5760 5757 5754 5751 5748 5744 5741
5783 5784 5785 5785 5786 5786 5785 5784 5784 5783 5782 5781 5781 5780 5779 5778 5778 5777 5776 5775 5774 5774 5773 5772 5771 5770 5769 5769 5768 5766 5765 5763 5761 5759 5756 5754 5751 5748 5745 5742 5738 5735 5732 5728
5777 5777 5778 5778 5779 5779 5779 5778 5777 5777 5776 5775 5774 5773 5772 5772 5771 5770 5769 5769 5768 5767 5766 5764 5763 5762 5761 5760 5758 5756 5754 5752 5750 5747 5744 5742 5739 5735 5732 5729 5725 5721 5717 5713
5770 5770 5771 5771 5772 5772 5771 5771 5770 5769 5768 5768 5767 5766 5765 5765 5764 5763 5762 5762 5761 5759 5758 5756 5755 5753 5752 5750 5748 5746 5743 5741 5738 5735 5732 5729 5726 5722 5718 5715 5711 5706 5702 5697